Sioux Falls, SD

10:43 AM CDT on March 27, 2017 (GMT -0500)
Foss

Weather History for KFSD - September, 2013

Change the Weather History Date:

Sunday, September 1, 2013

  Actual Average Record
Temperature  
Mean Temperature 67 °F 67 °F  
Max Temperature 77 °F 79 °F 97 °F (1898)
Min Temperature 57 °F 56 °F 36 °F (1974)
Degree Days  
Heating Degree Days 0 2  
Month to date heating degree days 0 2  
Since 1 July heating degree days 34 33  
Cooling Degree Days 2 4  
Month to date cooling degree days 2 4  
Year to date cooling degree days 656 629  
Growing Degree Days 18 (Base 50)    
Moisture  
Dew Point 59 °F    
Average Humidity 74    
Maximum Humidity 90    
Minimum Humidity 48    
Precipitation  
Precipitation 0.00 in 0.10 in 2.00 in (1992)
Month to date precipitation 0.00 0.10  
Year to date precipitation 20.42 19.49  
Snow  
Snow 0.00 in 0.00 in 0.00 in ()
Month to date snowfall 0.0 0.0  
Since 1 July snowfall 0.0 0.0  
Since 1 September snowfall 0.0 0.0  
Snow Depth 0.00 in    
Sea Level Pressure  
Sea Level Pressure 29.94 in    
Wind  
Wind Speed 9 mph (NNW)    
Max Wind Speed 21 mph    
Max Gust Speed 28 mph    
Visibility 10 miles    
Events      
T = Trace of Precipitation, MM = Missing Value Source: NWS Daily Summary

Daily Weather History Graph

Daily Weather History Graph

Search for Another Location

Airport or City:

Trip Planner

Search our weather history database for the weather conditions in past years. The results will help you decide how hot, cold, wet, or windy it might be!

Date:

Astronomy

Sep. 01, 2013 Rise Set
Actual Time 6:51 AM CDT 8:01 PM CDT
Civil Twilight 6:21 AM CDT 8:31 PM CDT
Nautical Twilight 5:46 AM CDT 9:06 PM CDT
Astronomical Twilight 5:08 AM CDT 9:43 PM CDT
Moon 3:09 AM CDT (9/1) 5:43 PM CDT (9/1)
Length of Visible Light 14h 09m
Length of Day
13h 10m
Waning Crescent, 13% of the Moon is Illuminated
Sep 1
Waning Crescent
Sep 5
New
Sep 12
First Quarter
Sep 19
Full
Sep 26
Last Quarter

Hourly Weather History & Observations

Time (CDT) Temp. Dew Point Humidity Pressure Visibility Wind Dir Wind Speed Gust Speed Precip Events Conditions
12:56 AM 69.1 °F 66.0 °F 90% 29.86 in 10.0 mi Calm Calm - N/A   Mostly Cloudy
1:56 AM 68.0 °F 64.0 °F 87% 29.84 in 10.0 mi NNW 5.8 mph - N/A   Clear
2:56 AM 64.9 °F 60.1 °F 84% 29.86 in 10.0 mi NW 5.8 mph - N/A   Clear
3:56 AM 63.0 °F 59.0 °F 87% 29.86 in 10.0 mi NW 8.1 mph - N/A   Clear
4:56 AM 63.0 °F 57.9 °F 84% 29.87 in 10.0 mi NW 8.1 mph - N/A   Clear
5:56 AM 60.1 °F 57.0 °F 90% 29.90 in 10.0 mi NW 3.5 mph - N/A   Clear
6:56 AM 60.1 °F 57.0 °F 90% 29.91 in 10.0 mi NW 8.1 mph - N/A   Partly Cloudy
7:56 AM 62.1 °F 57.9 °F 86% 29.93 in 10.0 mi NW 5.8 mph - N/A   Clear
8:56 AM 66.0 °F 59.0 °F 78% 29.95 in 10.0 mi NW 6.9 mph - N/A   Clear
9:56 AM 70.0 °F 60.1 °F 71% 29.96 in 10.0 mi NNW 6.9 mph - N/A   Clear
10:56 AM 72.0 °F 60.1 °F 66% 29.97 in 10.0 mi NNW 11.5 mph - N/A   Partly Cloudy
11:56 AM 73.9 °F 57.9 °F 57% 29.96 in 10.0 mi NW 15.0 mph - N/A   Partly Cloudy
12:56 PM 75.0 °F 59.0 °F 57% 29.96 in 10.0 mi NW 13.8 mph 23.0 mph N/A   Scattered Clouds
1:56 PM 75.9 °F 60.1 °F 58% 29.96 in 10.0 mi NNW 17.3 mph 23.0 mph N/A   Scattered Clouds
2:56 PM 75.9 °F 60.1 °F 58% 29.96 in 10.0 mi NNW 17.3 mph 24.2 mph N/A   Scattered Clouds
3:56 PM 75.9 °F 60.1 °F 58% 29.96 in 10.0 mi NNW 11.5 mph 24.2 mph N/A   Scattered Clouds
4:56 PM 75.0 °F 59.0 °F 57% 29.96 in 10.0 mi North 15.0 mph 26.5 mph N/A   Partly Cloudy
5:56 PM 73.0 °F 57.9 °F 59% 29.98 in 10.0 mi North 13.8 mph - N/A   Partly Cloudy
6:56 PM 72.0 °F 57.9 °F 61% 29.98 in 10.0 mi North 11.5 mph - N/A   Partly Cloudy
7:56 PM 66.9 °F 57.9 °F 73% 30.00 in 10.0 mi North 5.8 mph - N/A   Clear
8:56 PM 63.0 °F 57.9 °F 84% 30.01 in 10.0 mi NNW 4.6 mph - N/A   Clear
9:56 PM 62.1 °F 57.9 °F 86% 30.02 in 10.0 mi North 4.6 mph - N/A   Clear
10:56 PM 61.0 °F 57.0 °F 87% 30.04 in 10.0 mi NNE 3.5 mph - N/A   Clear
11:56 PM 59.0 °F 55.9 °F 90% 30.05 in 10.0 mi NNE 3.5 mph - N/A   Clear